Location: Newark
(25.5428°S, 54.5819°W)
Time: 15:36:54
(UTC+00:00)

Envisat - Pass Details

Date: 30 July 2019
Orbit: 764 x 766 km, 98.1° (Epoch: 23 August)

Event Time Altitude Azimuth Distance (km) Brightness Sun altitude
Exits shadow 22:54:30 - 175° (S) 2,762 5.7 -23.1°
Reaches altitude 10° 22:55:36 10° 177° (S) 2,326 5.4 -23.4°
Maximum altitude 23:00:38 59° 256° (WSW) 890 3.5 -24.5°
Drops below altitude 10° 23:05:37 10° 334° (NNW) 2,299 5.9 -25.6°
Sets 23:07:56 0° 338° (NNW) 3,218 6.6 -26.1°
